Regional Weather Roundup
Issued by NWS

Home | Current Version | Previous Version | Graphics & Text | Print | Product List | Glossary On
Versions: 1 2 3 4 5 6 7 8 9 10 11 12 13 14 15 16 17 18 19 20 21 22 23 24 25 26 27
000
ASUS45 KCYS 290310
RWRWY

WYOMING REGIONAL WEATHER ROUNDUP
NATIONAL WEATHER SERVICE CHEYENNE WY
900 PM MDT SUN MAY 28 2017

NOTE:  "FAIR" INDICATES FEW OR NO CLOUDS BELOW 12,000 FEET
WITH NO SIGNIFICANT WEATHER AND/OR OBSTRUCTIONS TO VISIBILITY.

WYZ001-290400-
YELLOWSTONE NATIONAL PARK

CITY           SKY/WX    TMP DP  RH WIND       PRES   REMARKS
LK YELLOWSTONE   N/A     42  38  85 CALM      30.40R
W YELLOWSTONE  NOT AVBL

$$
WYZ002>013-054>058-071-098>099-290400-
NORTHERN WYOMING

CITY           SKY/WX    TMP DP  RH WIND       PRES   REMARKS
JACKSON        FAIR      55  34  44 N8        30.27S
CODY           FAIR      56  41  57 SW8       30.28R
GREYBULL       MOCLDY    63  38  39 NW8       30.21R
WORLAND        LGT RAIN  57  50  77 S9        30.22R
SHERIDAN       FAIR      52  42  69 W9        30.19S
BUFFALO        FAIR      56  37  49 W17       30.23S
GILLETTE       FAIR      55  42  61 NW15      30.16S
HULETT         MOCLDY    55  41  58 SW8       30.15R
NEWCASTLE      FAIR      55  37  50 NW9       30.14F

$$
WYZ014>020-022>026-101>103-290400-
CENTRAL WYOMING

CITY           SKY/WX    TMP DP  RH WIND       PRES   REMARKS
BIG PINEY      FAIR      50  32  50 N12       30.28S
PINEDALE       FAIR      50  30  46 NW6       30.29S
DUBOIS         CLOUDY    52  34  50 N3        30.32R
LANDER         FAIR      53  44  71 SW7       30.28R
RIVERTON       MOCLDY    57  41  55 CALM      30.27R
CASPER         MOCLDY    49  45  86 SE8       30.26F
DOUGLAS        CLOUDY    52  44  74 CALM      30.25R

$$
WYZ021-027>030-104>119-290400-
SOUTHERN WYOMING

CITY           SKY/WX    TMP DP  RH WIND       PRES   REMARKS
EVANSTON       FAIR      56  31  38 N8        30.29R
KEMMERER         N/A     54  28  37 W5        30.30S
FORT BRIDGER   FAIR      57  28  33 N6        30.31S
ROCK SPRINGS   FAIR      56  25  30 NW6       30.26S
DIXON            N/A     55  37  51 NE3       30.28S
RAWLINS        LGT RAIN  55  38  52 N12       30.26S
SARATOGA       FAIR      52  32  46 NE5       30.29R
LARAMIE        FAIR      50  35  56 N10       30.28R
CHEYENNE       FAIR      55  39  54 N5        30.25S
TORRINGTON     FAIR      57  41  55 N12       30.16R
PINE BLUFFS    FAIR      52  43  71 SW6       30.22R

$$




USA.gov is the U.S. government's official web portal to all federal, state and local government web resources and services.